Tracking 30105 objects as of 24-Jan-2025
HD Live streaming from Space Station
objects crossing your sky now

PERSEUS M1

Track PERSEUS M1 now!
10-day predictions
PERSEUS M1 is classified as:


NORAD ID: 40039
Int'l Code: 2014-033AF
Perigee: 588.4 km
Apogee: 605.5 km
Inclination: 97.9 °
Period: 96.5 minutes
Semi major axis: 6967 km
RCS: Unknown
Launch date: June 19, 2014
Source: Commonwealth of Independent States (former USSR) (CIS)
Launch site: Orenburg, Russia (OREN)

Uplink (MHz):
Downlink (MHz): 400.160/400.170*
Beacon (MHz):
Mode: 9600bps GFSK
Call sign: CQ
Status:

Your satellite tracking list
Your tracking list is empty




NASA's NSSDC Master Catalog

Two Line Element Set (TLE):
1 40039U 14033AF  25024.39271813  .00004688  00000-0  46031-3 0  9997
2 40039  97.9202 317.8779 0012245 177.2475 182.8814 14.92615530574651
Source of the keplerian elements: AFSPC